Location: Sukhothai
(17.0060°N, 99.8230°E)
Time: 12:02:21
(UTC+07:00)

ISS - Visible Passes

Search period start: 17 November 2018 00:00
Search period end: 27 November 2018 00:00
Orbit: 402 x 408 km, 51.6° (Epoch: 17 November)

Date Brightness Start Highest point End Pass type
(mag) Time Alt. Az. Time Alt. Az. Time Alt. Az.
17 Nov -1.2 19:30:35 10° SSW 19:31:21 16° SSW 19:31:21 16° SSW visible
18 Nov -2.6 05:21:50 16° NNW 05:24:03 38° NE 05:27:08 10° ESE visible
18 Nov -2.2 18:39:23 10° S 18:41:47 19° SE 18:42:07 19° ESE visible
19 Nov -1.0 04:32:32 16° ENE 04:32:32 16° ENE 04:34:05 10° E visible
19 Nov -2.3 19:22:58 10° WSW 19:25:33 34° WNW 19:25:33 34° WNW visible
20 Nov -3.6 05:15:59 46° WSW 05:16:18 48° SW 05:19:27 10° SSE visible
20 Nov -3.9 18:30:42 10° SSW 18:33:56 77° SE 18:36:13 18° NE visible
21 Nov -0.9 04:26:42 16° SE 04:26:42 16° SE 04:27:28 10° SE visible
21 Nov -0.9 19:17:10 10° WNW 19:18:21 12° NW 19:19:30 10° NNW visible
22 Nov -1.9 18:23:22 10° WSW 18:26:09 26° NW 18:28:56 10° N visible
